This is the latest recevied weather packets stored in our database for station/object DB0ASF-4. If no packets are shown the sender has not sent any weather packets the latest 10 day(s).
| Time | Temp. | Humidity | Pressure | Rain* | Wind** | Luminosity | Snow |
|---|---|---|---|---|---|---|---|
| 1777877357 | 13.89° C | 68% | 1019.4 hPa | 0 mm | - | - | - |
| 1777876757 | 13.89° C | 70% | 1019.2 hPa | 0 mm | - | - | - |
| 1777876157 | 13.33° C | 72% | 1019.2 hPa | 0 mm | - | - | - |
| 1777875557 | 12.78° C | 73% | 1019.4 hPa | 0 mm | - | - | - |
| 1777874957 | 12.22° C | 74% | 1019.2 hPa | 0 mm | - | - | - |
| 1777874357 | 11.67° C | 75% | 1019.2 hPa | 0 mm | - | - | - |
| 1777873757 | 11.67° C | 76% | 1019.2 hPa | 0 mm | - | - | - |
| 1777873157 | 11.11° C | 76% | 1019.2 hPa | 0 mm | - | - | - |
| 1777872557 | 11.11° C | 75% | 1019.2 hPa | 0 mm | - | - | - |
| 1777871957 | 10.56° C | 75% | 1019.2 hPa | 0 mm | - | - | - |
| 1777871357 | 10.56° C | 75% | 1019 hPa | 0 mm | - | - | - |
| 1777870757 | 10° C | 75% | 1019.2 hPa | 0 mm | - | - | - |
| 1777870157 | 10° C | 75% | 1019.2 hPa | 0 mm | - | - | - |
| 1777869557 | 10° C | 75% | 1019.2 hPa | 0 mm | - | - | - |
| 1777868957 | 10° C | 74% | 1019 hPa | 0 mm | - | - | - |
| 1777868357 | 10° C | 74% | 1018.9 hPa | 0 mm | - | - | - |
| 1777867757 | 10° C | 73% | 1018.9 hPa | 0 mm | - | - | - |
| 1777867157 | 10° C | 72% | 1019 hPa | 0 mm | - | - | - |
| 1777866557 | 10° C | 72% | 1019 hPa | 0 mm | - | - | - |
| 1777865957 | 10.56° C | 72% | 1018.9 hPa | 0 mm | - | - | - |
| 1777865357 | 10.56° C | 71% | 1019 hPa | 0 mm | - | - | - |
| 1777864757 | 10.56° C | 70% | 1018.9 hPa | 0 mm | - | - | - |
| 1777864157 | 11.11° C | 70% | 1019 hPa | 0 mm | - | - | - |
| 1777863557 | 11.11° C | 69% | 1019 hPa | 0 mm | - | - | - |
| 1777862957 | 11.11° C | 68% | 1019 hPa | 0 mm | - | - | - |
* Rain latest hour (hover to see other rain measurements)
** Current wind speed in m/s (hover to see current wind gust speed)